This is the latest recevied weather packets stored in our database for station/object WB4ROX. If no packets are shown the sender has not sent any weather packets the latest 10 day(s).
| Time | Temp. | Humidity | Pressure | Rain* | Wind** | Luminosity | Snow |
|---|---|---|---|---|---|---|---|
| 1777737437 | 5° C | 54% | 1015 hPa | 0 mm | - | 462 W/m² | - |
| 1777737135 | 5° C | 52% | 1015.1 hPa | 0 mm | - | 339 W/m² | - |
| 1777736830 | 5° C | 50% | 1014.7 hPa | 0 mm | - | 385 W/m² | - |
| 1777736212 | 4.44° C | 56% | 1014.6 hPa | 0 mm | - | 522 W/m² | - |
| 1777735908 | 4.44° C | 56% | 1014.8 hPa | 0 mm | - | 488 W/m² | - |
| 1777735606 | 3.89° C | 53% | 1014.5 hPa | 0 mm | - | 751 W/m² | - |
| 1777735303 | 3.89° C | 53% | 1014.6 hPa | 0 mm | - | 357 W/m² | - |
| 1777735001 | 4.44° C | 51% | 1014.7 hPa | 0 mm | - | 444 W/m² | - |
| 1777734697 | 3.89° C | 56% | 1015 hPa | 0 mm | - | 418 W/m² | - |
| 1777734395 | 3.33° C | 59% | 1015 hPa | 0 mm | - | 798 W/m² | - |
| 1777734091 | 3.33° C | 59% | 1015 hPa | 0 mm | - | 518 W/m² | - |
| 1777733788 | 3.33° C | 56% | 1014.8 hPa | 0 mm | - | 270 W/m² | - |
| 1777733485 | 3.89° C | 54% | 1014.8 hPa | 0 mm | - | 212 W/m² | - |
| 1777733180 | 4.44° C | 57% | 1014.8 hPa | 0 mm | - | 299 W/m² | - |
| 1777732878 | 3.89° C | 57% | 1014.7 hPa | 0 mm | - | 314 W/m² | - |
| 1777732574 | 3.89° C | 59% | 1014.3 hPa | 0 mm | - | 668 W/m² | - |
| 1777732272 | 3.33° C | 62% | 1014.3 hPa | 0 mm | - | 331 W/m² | - |
| 1777731969 | 3.33° C | 63% | 1014.5 hPa | 0 mm | - | 251 W/m² | - |
| 1777731665 | 3.33° C | 62% | 1014.6 hPa | 0 mm | - | 216 W/m² | - |
| 1777731363 | 3.33° C | 64% | 1014.4 hPa | 0 mm | - | 222 W/m² | - |
| 1777731060 | 3.33° C | 66% | 1014.4 hPa | 0 mm | - | 290 W/m² | - |
| 1777730759 | 2.78° C | 65% | 1014.7 hPa | 0 mm | - | 298 W/m² | - |
| 1777730455 | 2.78° C | 66% | 1014.4 hPa | 0 mm | - | 204 W/m² | - |
| 1777730150 | 2.78° C | 65% | 1014 hPa | 0 mm | - | 205 W/m² | - |
| 1777729848 | 2.78° C | 65% | 1014.1 hPa | 0 mm | - | 169 W/m² | - |
* Rain latest hour (hover to see other rain measurements)
** Current wind speed in m/s (hover to see current wind gust speed)